Flag for U.S.A. Weather past 2 weeks in Washington DC, District of Columbia, U.S.A.

Now
56 °F

Sunny.


Feels Like: 54 °F
Forecast: 41 / 68 °F
Wind: 7 mph from North

Location: Reagan National Airport

Current Time: Apr 1, 2015 at 8:46:59 PM

Latest Report: Apr 1, 2015 at 7:52 PM


Visibility: 10 mi

Pressure: 30.19 "Hg

Humidity: 33%

Dew point: 27 °F

Location of Washington DCLocation

Historic Weather in Washington DC — Graph

°F

Washington DC temperature yesterday

Maximum temperature yesterday: 73 °F (at 2:52 PM)
Minimum temperature yesterday: 45 °F (at 6:52 AM)
Average temperature yesterday: 56 °F

Past Weeks' High & Low Weather Summary

 TemperatureHumidityPressure
High76 °F (Mar 26, 5:52 PM)90% (Mar 26, 12:52 PM)30.42 "Hg (Mar 26, 12:52 PM)
Low28 °F (Mar 29, 4:52 AM)16% (Mar 29, 5:52 PM)29.58 "Hg (Mar 31, 3:52 PM)
Average46 °F47%30.10 "Hg
* Reported Mar 17 6:52 PM — Apr 1 6:52 PM, Washington DC, Weather by CustomWeather, © 2015

Note: Actual official high and low records may vary slightly from our data, if they occured in-between our weather recording intervals... More about our weather records

Advertising

Washington DC weather history for previous 24 hours

 ConditionsComfort  
Time TempWeatherWind HumidityBarometerVisibility
6:52 PM
Wed, Apr 1
59 °FPassing clouds.7 mph31%30.17 "Hg10 mi
5:52 PM60 °FPassing clouds.7 mph28%30.16 "Hg10 mi
4:52 PM61 °FScattered clouds.16 mph27%30.16 "Hg10 mi
3:52 PM60 °FScattered clouds.15 mph27%30.16 "Hg10 mi
2:52 PM59 °FPassing clouds.13 mph28%30.16 "Hg10 mi
1:52 PM57 °FPassing clouds.10 mph31%30.16 "Hg10 mi
12:52 PM55 °FSunny.7 mph34%30.16 "Hg10 mi
11:52 AM51 °FSunny.9 mph38%30.17 "Hg10 mi
10:52 AM50 °FSunny.13 mph39%30.17 "Hg10 mi
9:52 AM48 °FSunny.9 mph44%30.16 "Hg10 mi
8:52 AM46 °FSunny.13 mph48%30.14 "Hg10 mi
7:52 AM43 °FPassing clouds.9 mph53%30.11 "Hg10 mi
6:52 AM41 °FPassing clouds.9 mph58%30.07 "Hg10 mi
5:52 AM41 °FPassing clouds.12 mph60%30.03 "Hg10 mi
4:52 AM41 °FPassing clouds.7 mph62%30.01 "Hg10 mi
3:52 AM41 °FPassing clouds.7 mph65%29.99 "Hg10 mi
2:52 AM41 °FPassing clouds.7 mph65%29.98 "Hg10 mi
1:52 AM43 °FPassing clouds.13 mph62%29.96 "Hg10 mi
12:52 AM44 °FPassing clouds.24 mph63%29.93 "Hg10 mi
11:52 PM
Tue, Mar 31
47 °FPassing clouds.21 mph69%29.89 "Hg10 mi
10:52 PM49 °FPassing clouds.15 mph66%29.84 "Hg10 mi
9:52 PM53 °FPassing clouds.16 mph61%29.81 "Hg10 mi
8:52 PM55 °FLight rain. Overcast.16 mph67%29.77 "Hg10 mi
Weather by CustomWeather, © 2015

See weather overviewHow to use our weather pages